[[{"header":{"parameterUnit":"m.s-1","parameterCategory":2,"la1":30.2991,"la2":30.254,"lo1":-89.0895,"lo2":-89.0444,"dy":0.0017,"dx":0.0017,"nx":28,"ny":28,"refTime":"2024-07-27T03:00:00:Z","depth":"0","parameterNumber":2,"parameterNumberName":"U-component_of_CURRENTS"},"data":[0,0,0,0,0,0,0,0,0,0,0,0,0,0,0,0,0,0,0,0,0,0,0,0,0,0,0,0,0,0,0,0,0,0,0,0,0,0,0,0,0,0,0,0,0,0,0,0,0,0,0,0,0,0,0,0,0,0,0.2373,0.2375,0,0.2499,0.25,0.2502,0.2574,0.2574,0.2575,0.2575,0.259,0.259,0.259,0,0,0,0,0,0,0,0,0,0,0,0,0,0.2281,0.2281,0.2373,0.2375,0.2377,0.2499,0.25,0.2502,0.2574,0.2574,0.2575,0.2575,0.259,0.259,0.259,0,0,0,0,0,0,0,0,0,0,0,0,0,0.2354,0.2282,0.2373,0.2428,0.2434,0.2498,0.25,0.2502,0.2574,0.2574,0.2575,0.2575,0.259,0.259,0.259,0.258,0,0,0.259,0.259,0,0,0,0,0,0,0,0,0.235,0.2357,0.2418,0.2424,0.2431,0.2522,0.2473,0.2523,0.2574,0.252,0.2575,0.2576,0.2557,0.256,0.2583,0.2581,0.2582,0.259,0.259,0.259,0.259,0,0,0,0,0,0,0,0.2344,0.2353,0.2422,0.242,0.2428,0.2475,0.2485,0.2484,0.2531,0.2525,0.253,0.2545,0.256,0.2583,0.2583,0.2582,0.259,0.259,0.259,0.2591,0.2606,0.2606,0,0,0,0,0,0,0.2325,0.2347,0.2418,0.2426,0.2392,0.2476,0.2488,0.2492,0.2534,0.2542,0.2545,0.2548,0.2582,0.2583,0.2584,0.2586,0.259,0.2591,0.2591,0.2606,0.2606,0.2607,0,0,0,0,0,0,0.2323,0.233,0.2413,0.2391,0.2405,0.2477,0.2481,0.2494,0.2517,0.2551,0.2557,0.2555,0.2583,0.2584,0.2584,0.2586,0.2591,0.2591,0.2605,0.2606,0.2606,0.2581,0,0,0,0,0,0,0.2319,0.2328,0.2323,0.2389,0.2406,0.2442,0.2481,0.2496,0.2526,0.2531,0.256,0.2563,0.2583,0.2584,0.2585,0.2586,0.2591,0.2605,0.2606,0.2606,0.2582,0.2581,0.258,0,0,0,0,0,0.2315,0.2306,0.2322,0.2331,0.2396,0.2441,0.2453,0.2507,0.2525,0.253,0.2554,0.2562,0.2589,0.2584,0.2584,0.2586,0.2605,0.2605,0.2606,0.2582,0.2581,0.258,0,0,0,0,0,0,0.2277,0.2315,0.2333,0.2339,0.2382,0.2454,0.2466,0.2499,0.2526,0.2527,0.2557,0.2561,0.2571,0.2577,0.2571,0.2596,0.2602,0.2602,0.2583,0.2582,0.2582,0.2581,0.2591,0,0,0,0,0,0.2261,0.2259,0.2311,0.232,0.2333,0.2396,0.242,0.2455,0.2492,0.2506,0.2528,0.2551,0.2575,0.2575,0.2596,0.2592,0.2608,0.2598,0.2597,0.2596,0.2598,0.2626,0.2628,0.2609,0.2609,0.2609,0,0,0.2263,0.2273,0.2282,0.231,0.2347,0.2374,0.2411,0.2443,0.247,0.2498,0.2523,0.2546,0.2576,0.259,0.2594,0.2591,0.2609,0.2597,0.2596,0.2598,0.2627,0.2629,0.263,0.261,0.261,0.2609,0,0,0.2258,0.2258,0.2258,0.2279,0.2316,0.2352,0.2355,0.2414,0.2438,0.2464,0.2501,0.2521,0.2547,0.2576,0.2593,0.2594,0.261,0.26,0.2586,0.2613,0.2614,0.2616,0.2631,0.2634,0.2592,0.2592,0.2592,0,0.2268,0.2259,0.2269,0.2273,0.2294,0.2337,0.2357,0.2387,0.2441,0.2456,0.2465,0.253,0.2547,0.2579,0.2588,0.2592,0.2606,0.2584,0.2611,0.2613,0.2615,0.263,0.2634,0.2591,0.2591,0.2591,0.2591,0,0.2263,0.226,0.2259,0.2274,0.2293,0.2312,0.2353,0.2371,0.24,0.2438,0.2472,0.2505,0.2544,0.2554,0.2571,0.2597,0.2601,0.2612,0.261,0.2615,0.2631,0.2635,0.2589,0.259,0.259,0.259,0,0,0.2301,0.2266,0.2271,0.2268,0.2291,0.2313,0.2335,0.2375,0.2401,0.2433,0.247,0.2508,0.2526,0.2547,0.257,0.2588,0.2612,0.26,0.2602,0.2609,0.2663,0.2527,0.2519,0.2625,0.2626,0.2627,0.2665,0,0.231,0.2296,0.2281,0.2295,0.2298,0.2319,0.2342,0.2376,0.2409,0.2448,0.2478,0.2523,0.2524,0.2548,0.2563,0.2616,0.2624,0.26,0.2663,0.2665,0.2538,0.252,0.2385,0.2395,0.2669,0.267,0.2671,0,0.2321,0.2304,0.2303,0.2293,0.23,0.2314,0.2351,0.2376,0.2425,0.2453,0.2484,0.2519,0.2558,0.256,0.262,0.2605,0.2626,0.2653,0.2656,0.254,0.2536,0.2437,0.2394,0.2328,0.2678,0.2677,0.2677,0,0.2341,0.2325,0.2317,0.2317,0.2318,0.2323,0.2335,0.2378,0.2403,0.2459,0.249,0.2534,0.2569,0.2605,0.2639,0.2643,0.2697,0.2714,0.2606,0.2598,0.25,0.2479,0.2392,0.2743,0.2743,0.2743,0.2742,0,0.2356,0.2353,0.2319,0.232,0.2326,0.2324,0.2349,0.2375,0.2413,0.2441,0.2489,0.2521,0.2583,0.2615,0.2645,0.262,0.2699,0.2593,0.2592,0.2484,0.2463,0.2414,0.2406,0.2744,0.2744,0.2743,0.2743,0,0.2382,0.2361,0.2349,0.2334,0.2333,0.2339,0.2349,0.2368,0.2406,0.2446,0.2465,0.2525,0.2544,0.2578,0.2639,0.261,0.2524,0.2592,0.2444,0.2421,0.222,0.2215,0.2035,0.1992,0.2477,0.2473,0.2471,0,0.2378,0.2375,0.236,0.2357,0.2347,0.2348,0.2355,0.2374,0.2386,0.244,0.2456,0.2484,0.2476,0.2485,0.2438,0.2421,0.2395,0.2291,0.2255,0.2164,0.2163,0.2083,0.2058,0.2135,0.2129,0.2125,0.2122,0,0.2375,0.2378,0.2372,0.2368,0.2363,0.2358,0.2354,0.2357,0.2376,0.2392,0.239,0.2384,0.2343,0.2229,0.2178,0.217,0.2136,0.2196,0.2159,0.1911,0.1767,0.1739,0.216,0.2083,0.2087,0.209,0.2092,0.2093,0.2366,0.2368,0.2364,0.2355,0.2357,0.2339,0.23,0.2289,0.2275,0.2229,0.229,0.2194,0.209,0.1968,0.1942,0.1771,0.1829,0.1718,0.1733,0.1671,0.1562,0.1864,0.174,0.1742,0.1744,0.1745,0.1746,0,0.2326,0.2336,0.2341,0.2318,0.2295,0.2307,0.2273,0.2197,0.2118,0.2085,0.2039,0.1849,0.1706,0.1611,0.1424,0.1338,0.1315,0.1311,0.1216,0.1232,0.1553,0.147,0.121,0.1211,0.1211,0.1211,0.1211,0.1211,0.2303,0.2291,0.2292,0.2237,0.222,0.2132,0.2082,0.1981,0.1908,0.1707,0.1545,0.1492,0.1363,0.1194,0.1039,0.1027,0.0986,0.0868,0.0947,0.1221,0.1262,0.1301,0.122,0.0912,0.0912,0.0553,0.0551,0.0548]},{"header":{"parameterUnit":"m.s-1","parameterCategory":2,"la1":30.2991,"la2":30.254,"lo1":-89.0895,"lo2":-89.0444,"dy":0.0017,"dx":0.0017,"nx":28,"ny":28,"refTime":"2024-07-27T03:00:00:Z","depth":"0","parameterNumber":3,"parameterNumberName":"V-component_of_CURRENTS"},"data":[0,0,0,0,0,0,0,0,0,0,0,0,0,0,0,0,0,0,0,0,0,0,0,0,0,0,0,0,0,0,0,0,0,0,0,0,0,0,0,0,0,0,0,0,0,0,0,0,0,0,0,0,0,0,0,0,0,0,0.0377,0.0376,0,0.0313,0.0312,0.0311,0.0278,0.0278,0.0278,0.0278,0.0245,0.0244,0.0243,0,0,0,0,0,0,0,0,0,0,0,0,0,0.042,0.042,0.0377,0.0376,0.0375,0.0313,0.0312,0.0311,0.0278,0.0278,0.0278,0.0277,0.0245,0.0244,0.0243,0,0,0,0,0,0,0,0,0,0,0,0,0,0.0384,0.042,0.0377,0.035,0.0347,0.0313,0.0312,0.0311,0.0278,0.0278,0.0278,0.0277,0.0245,0.0244,0.0243,0.0239,0,0,0.0239,0.0239,0,0,0,0,0,0,0,0,0.0387,0.0383,0.0355,0.0352,0.0348,0.0302,0.0315,0.0288,0.0278,0.0305,0.0278,0.0277,0.0266,0.0264,0.0253,0.0238,0.0236,0.0239,0.0239,0.0238,0.0238,0,0,0,0,0,0,0,0.0389,0.0385,0.0352,0.0354,0.035,0.0325,0.032,0.031,0.0289,0.0303,0.03,0.0292,0.0265,0.0254,0.0252,0.0236,0.0239,0.0238,0.0238,0.0237,0.0241,0.0242,0,0,0,0,0,0,0.0398,0.0388,0.0354,0.035,0.0367,0.0324,0.0319,0.0318,0.0288,0.0283,0.0292,0.029,0.0256,0.0253,0.025,0.0276,0.0238,0.0237,0.0236,0.024,0.0241,0.0242,0,0,0,0,0,0,0.04,0.0396,0.0357,0.0366,0.0359,0.0324,0.0323,0.0317,0.0308,0.0279,0.0275,0.029,0.0255,0.0252,0.0248,0.0273,0.0236,0.0235,0.0239,0.0241,0.0242,0.0307,0,0,0,0,0,0,0.0401,0.0397,0.0405,0.0367,0.0359,0.0342,0.0323,0.0316,0.0303,0.0301,0.0277,0.0273,0.0255,0.025,0.0247,0.0271,0.0235,0.0238,0.024,0.0241,0.0304,0.031,0.0316,0,0,0,0,0,0.0403,0.0415,0.0406,0.0402,0.037,0.0342,0.0336,0.031,0.0304,0.0302,0.0289,0.0274,0.0258,0.025,0.0246,0.027,0.0238,0.024,0.0241,0.0301,0.0309,0.0315,0,0,0,0,0,0,0.0437,0.0411,0.0401,0.0404,0.0378,0.0336,0.0336,0.0316,0.0302,0.0306,0.028,0.0275,0.0284,0.0265,0.0257,0.0275,0.0247,0.0248,0.0294,0.0301,0.0307,0.0345,0.0234,0,0,0,0,0,0.0448,0.0454,0.0417,0.0421,0.0411,0.0375,0.0363,0.0344,0.0323,0.0317,0.0296,0.0286,0.0288,0.0285,0.0277,0.0283,0.0283,0.0296,0.0302,0.0308,0.0336,0.0353,0.0364,0.0248,0.0248,0.0248,0,0,0.0461,0.045,0.0452,0.0429,0.041,0.0406,0.0368,0.0355,0.0359,0.0317,0.0322,0.0305,0.0294,0.0304,0.0307,0.0292,0.0338,0.031,0.0315,0.034,0.0356,0.0368,0.0378,0.0249,0.0249,0.0249,0,0,0.0491,0.0482,0.0495,0.0479,0.0454,0.0432,0.0431,0.0392,0.0385,0.038,0.0362,0.0367,0.0346,0.0354,0.0356,0.0391,0.037,0.0377,0.0438,0.0454,0.0464,0.0473,0.0479,0.0488,0.0379,0.0379,0.0379,0,0.0502,0.052,0.0492,0.0499,0.0497,0.045,0.0462,0.0447,0.0412,0.0425,0.0392,0.0404,0.0381,0.0428,0.0433,0.041,0.0405,0.0411,0.0464,0.0473,0.0481,0.0485,0.0494,0.0382,0.0382,0.0381,0.0381,0,0.0539,0.0553,0.0559,0.0559,0.0553,0.0553,0.0529,0.0528,0.0511,0.05,0.0529,0.05,0.0515,0.0501,0.0474,0.0527,0.05,0.047,0.0449,0.0497,0.0497,0.0506,0.0387,0.0386,0.0385,0.0384,0,0,0.0546,0.058,0.0579,0.0602,0.0587,0.0586,0.0608,0.0618,0.0655,0.0621,0.0674,0.066,0.0646,0.0649,0.0618,0.0623,0.0659,0.057,0.0569,0.0584,0.0687,0.0633,0.0637,0.0631,0.0633,0.0634,0.066,0,0.0575,0.0624,0.0627,0.0669,0.0688,0.0675,0.0705,0.0714,0.0716,0.0752,0.0743,0.0772,0.0703,0.0715,0.0713,0.0678,0.0686,0.0654,0.0633,0.0633,0.0586,0.0647,0.0634,0.0653,0.0668,0.0669,0.067,0,0.0597,0.0633,0.069,0.0747,0.0754,0.0774,0.083,0.085,0.0891,0.0901,0.0929,0.0913,0.0934,0.086,0.0845,0.0822,0.077,0.0731,0.0731,0.0672,0.0596,0.0609,0.0667,0.0624,0.0683,0.0682,0.0681,0,0.0616,0.067,0.0729,0.0741,0.0794,0.0828,0.0855,0.0898,0.0939,0.1001,0.1044,0.1054,0.1071,0.1018,0.092,0.0889,0.0891,0.0839,0.075,0.0744,0.0729,0.0718,0.0755,0.0845,0.0845,0.0845,0.0845,0,0.064,0.068,0.0747,0.0775,0.0848,0.0871,0.0951,0.0984,0.1054,0.1124,0.1123,0.1181,0.1108,0.1086,0.0985,0.0897,0.0943,0.079,0.0761,0.0747,0.0738,0.0694,0.0671,0.0846,0.0846,0.0846,0.0846,0,0.0644,0.0689,0.0753,0.083,0.0857,0.0906,0.0994,0.1054,0.1121,0.1218,0.1245,0.1287,0.1261,0.117,0.1093,0.0986,0.0873,0.0854,0.0835,0.0803,0.0665,0.0646,0.0684,0.0658,0.0779,0.0778,0.0777,0,0.0653,0.0691,0.0782,0.0826,0.086,0.0938,0.0993,0.1071,0.1138,0.1276,0.1327,0.1355,0.1373,0.125,0.1073,0.0921,0.0862,0.0801,0.0742,0.0685,0.0644,0.0646,0.0622,0.0744,0.0743,0.0742,0.0742,0,0.0666,0.0697,0.0753,0.0839,0.0904,0.0985,0.1071,0.1138,0.1245,0.1335,0.1444,0.1481,0.1387,0.1246,0.1042,0.0919,0.0781,0.0777,0.0741,0.0652,0.0641,0.0591,0.0689,0.0734,0.0735,0.0735,0.0736,0.0736,0.0667,0.0702,0.0775,0.0852,0.093,0.1024,0.1092,0.1187,0.1301,0.1445,0.1489,0.1544,0.1387,0.1114,0.0964,0.0696,0.0721,0.0612,0.0603,0.062,0.0574,0.0646,0.0635,0.0636,0.0636,0.0636,0.0636,0,0.0666,0.0713,0.0784,0.0883,0.096,0.1007,0.1138,0.1205,0.1325,0.1452,0.1536,0.1465,0.1273,0.1054,0.0719,0.0563,0.0517,0.0488,0.0507,0.0495,0.0581,0.0556,0.0501,0.0501,0.0501,0.0501,0.0501,0.0501,0.0672,0.0726,0.0763,0.0881,0.0956,0.106,0.1133,0.1234,0.133,0.1433,0.1453,0.1468,0.1311,0.0886,0.0576,0.0486,0.0416,0.0389,0.0365,0.0428,0.044,0.0451,0.0423,0.034,0.034,0.0291,0.029,0.029]}],[{"header":{"parameterUnit":"m.s-1","parameterCategory":2,"la1":30.2991,"la2":30.254,"lo1":-89.0895,"lo2":-89.0444,"dy":0.0017,"dx":0.0017,"nx":28,"ny":28,"refTime":"2024-07-27T03:00:00:Z","depth":"2","parameterNumber":2,"parameterNumberName":"U-component_of_CURRENTS"},"data":[0,0,0,0,0,0,0,0,0,0,0,0,0,0,0,0,0,0,0,0,0,0,0,0,0,0,0,0,0,0,0,0,0,0,0,0,0,0,0,0,0,0,0,0,0,0,0,0,0,0,0,0,0,0,0,0,0,0,0.1724,0.1724,0,0.1733,0.1733,0.1733,0.1761,0.1762,0.1762,0.1763,0.1691,0.1688,0.1686,0,0,0,0,0,0,0,0,0,0,0,0,0,0.1718,0.1718,0.1724,0.1724,0.1724,0.1733,0.1733,0.1733,0.1761,0.1762,0.1762,0.1763,0.1691,0.1689,0.1686,0,0,0,0,0,0,0,0,0,0,0,0,0,0.1725,0.1718,0.1724,0.1737,0.1738,0.1733,0.1733,0.1733,0.1761,0.1762,0.1762,0.1763,0.1692,0.1689,0.1686,0.1651,0,0,0.1675,0.1673,0,0,0,0,0,0,0,0,0.1724,0.1725,0.1735,0.1736,0.1738,0.1745,0.1704,0.1701,0.1761,0.1755,0.1763,0.1763,0.1699,0.1696,0.17,0.1647,0.1644,0.1675,0.1672,0.1671,0.167,0,0,0,0,0,0,0,0.1724,0.1725,0.1729,0.1735,0.1736,0.1738,0.174,0.1704,0.1723,0.1755,0.1757,0.1754,0.17,0.1703,0.1698,0.1643,0.1675,0.1672,0.1669,0.1668,0.17,0.1703,0,0,0,0,0,0,0.1719,0.1724,0.1729,0.1729,0.173,0.1738,0.174,0.1743,0.1725,0.1723,0.1754,0.1756,0.1709,0.1702,0.1695,0.1717,0.1671,0.1668,0.1666,0.1698,0.1701,0.1704,0,0,0,0,0,0,0.1719,0.1719,0.1729,0.1725,0.1726,0.1737,0.1741,0.1743,0.1775,0.1725,0.1722,0.1786,0.1709,0.17,0.1701,0.1712,0.1666,0.1663,0.1694,0.1699,0.1703,0.1718,0,0,0,0,0,0,0.1719,0.1719,0.1716,0.1725,0.1726,0.1738,0.174,0.1743,0.1769,0.1773,0.175,0.1743,0.1709,0.1707,0.1698,0.1706,0.166,0.169,0.1696,0.1701,0.1714,0.1723,0.173,0,0,0,0,0,0.1718,0.1706,0.1716,0.1716,0.1723,0.1738,0.174,0.175,0.1771,0.1783,0.1784,0.1745,0.1737,0.1705,0.1694,0.1702,0.1688,0.1694,0.1701,0.171,0.1721,0.173,0,0,0,0,0,0,0.169,0.1708,0.1719,0.171,0.1732,0.1743,0.1744,0.1769,0.1782,0.1782,0.1761,0.1753,0.1752,0.1746,0.1713,0.174,0.1714,0.1719,0.1726,0.1735,0.1743,0.1737,0.1657,0,0,0,0,0,0.1685,0.1695,0.171,0.171,0.1717,0.1742,0.175,0.1763,0.1774,0.1783,0.177,0.1771,0.1768,0.1769,0.1747,0.1755,0.1748,0.1768,0.1776,0.1782,0.1778,0.1794,0.1801,0.1726,0.1726,0.1726,0,0,0.1675,0.1686,0.1691,0.1707,0.1721,0.1734,0.175,0.1765,0.1783,0.1767,0.1781,0.1776,0.1775,0.1779,0.1782,0.1777,0.1805,0.179,0.1795,0.1788,0.1801,0.1808,0.1814,0.1731,0.173,0.1729,0,0,0.1661,0.1672,0.1677,0.1696,0.1716,0.1731,0.1747,0.1768,0.1786,0.1806,0.1801,0.1818,0.1814,0.1815,0.1819,0.1869,0.1833,0.1878,0.1915,0.1931,0.1936,0.194,0.1945,0.1949,0.1897,0.1897,0.1897,0,0.1652,0.1655,0.168,0.169,0.17,0.1739,0.1747,0.1771,0.1793,0.1803,0.1815,0.1842,0.1832,0.1854,0.1881,0.1878,0.1883,0.1864,0.1935,0.1939,0.1943,0.1947,0.1952,0.1899,0.1898,0.1898,0.1898,0,0.1645,0.1649,0.1653,0.1685,0.1702,0.1713,0.1747,0.1765,0.1798,0.1824,0.1853,0.1863,0.189,0.1899,0.1903,0.1938,0.193,0.1923,0.1894,0.1951,0.1953,0.1957,0.1901,0.19,0.19,0.1899,0,0,0.1635,0.1645,0.1653,0.166,0.1697,0.1714,0.1737,0.1769,0.1805,0.1835,0.188,0.19,0.1926,0.1937,0.1949,0.1974,0.2008,0.1973,0.1973,0.1949,0.204,0.1929,0.1922,0.2011,0.2012,0.2013,0.203,0,0.1629,0.1631,0.1644,0.1663,0.1665,0.1699,0.1731,0.1767,0.1809,0.186,0.1895,0.1939,0.194,0.1969,0.1993,0.1995,0.2021,0.2003,0.2015,0.2015,0.1884,0.1924,0.1768,0.176,0.2034,0.2035,0.2035,0,0.1621,0.1625,0.1624,0.1649,0.1658,0.1682,0.1736,0.1767,0.1836,0.1871,0.1921,0.1964,0.2009,0.2015,0.2044,0.2035,0.2046,0.2049,0.2049,0.1938,0.1911,0.1753,0.1757,0.2042,0.2041,0.2041,0.204,0,0.1605,0.1614,0.1611,0.1622,0.1659,0.1672,0.1703,0.1767,0.1798,0.1885,0.1917,0.1987,0.2024,0.2048,0.2063,0.2065,0.2087,0.2087,0.1995,0.1988,0.1851,0.1828,0.2114,0.2114,0.2114,0.2114,0.2114,0,0.1586,0.1597,0.1604,0.1615,0.164,0.1666,0.1708,0.1754,0.1814,0.1851,0.1927,0.196,0.2036,0.2063,0.2074,0.2033,0.2095,0.1996,0.1983,0.1854,0.1833,0.2074,0.2069,0.2115,0.2114,0.2114,0.2114,0,0.157,0.1576,0.1584,0.1615,0.1632,0.1653,0.1703,0.1722,0.1786,0.1832,0.1861,0.1947,0.1968,0.2015,0.2056,0.2024,0.2012,0.1987,0.1824,0.1789,0.1905,0.1902,0.1888,0.1884,0.1881,0.1878,0.1876,0,0.1556,0.155,0.1586,0.159,0.1605,0.1633,0.1646,0.171,0.1725,0.1804,0.1815,0.1875,0.1877,0.1879,0.1859,0.1842,0.1932,0.1686,0.1651,0.1892,0.1882,0.1883,0.1884,0.1492,0.1487,0.1482,0.1479,0,0.1531,0.1548,0.1554,0.156,0.1571,0.1587,0.1611,0.1619,0.1678,0.1696,0.1719,0.1728,0.1728,0.1633,0.1609,0.1584,0.1672,0.1594,0.1899,0.1559,0.1516,0.1507,0.1521,0.1441,0.1445,0.1448,0.145,0.1451,0.1517,0.1505,0.1508,0.1518,0.1533,0.1535,0.151,0.1515,0.1521,0.1513,0.158,0.1518,0.1512,0.1377,0.1319,0.129,0.1414,0.1361,0.1377,0.1396,0.1332,0.1284,0.1154,0.1156,0.1158,0.116,0.1161,0,0.1466,0.146,0.1457,0.1453,0.1429,0.1485,0.1475,0.1413,0.1364,0.1363,0.1347,0.1187,0.1087,0.1098,0.098,0.0952,0.0969,0.092,0.0945,0.0982,0.1015,0.0935,0.0651,0.0649,0.0648,0.0647,0,0,0.1441,0.1412,0.141,0.1364,0.1357,0.1324,0.1305,0.1217,0.1186,0.1079,0.1021,0.1056,0.1063,0.0858,0.0808,0.0717,0.0854,0.0682,0.1089,0.1157,0.119,0.1262,0.1177,0,0,0,0,0]},{"header":{"parameterUnit":"m.s-1","parameterCategory":2,"la1":30.2991,"la2":30.254,"lo1":-89.0895,"lo2":-89.0444,"dy":0.0017,"dx":0.0017,"nx":28,"ny":28,"refTime":"2024-07-27T03:00:00:Z","depth":"2","parameterNumber":3,"parameterNumberName":"V-component_of_CURRENTS"},"data":[0,0,0,0,0,0,0,0,0,0,0,0,0,0,0,0,0,0,0,0,0,0,0,0,0,0,0,0,0,0,0,0,0,0,0,0,0,0,0,0,0,0,0,0,0,0,0,0,0,0,0,0,0,0,0,0,0,0,0.0262,0.0261,0,0.0209,0.0208,0.0208,0.0168,0.0168,0.0167,0.0167,0.0112,0.011,0.0109,0,0,0,0,0,0,0,0,0,0,0,0,0,0.0283,0.0284,0.0262,0.0261,0.0261,0.0209,0.0208,0.0207,0.0168,0.0168,0.0167,0.0167,0.0112,0.0111,0.0109,0,0,0,0,0,0,0,0,0,0,0,0,0,0.0256,0.0284,0.0262,0.0235,0.0232,0.0209,0.0208,0.0207,0.0168,0.0168,0.0167,0.0167,0.0113,0.0111,0.0109,0.0107,0,0,0.0103,0.0103,0,0,0,0,0,0,0,0,0.0258,0.0255,0.024,0.0237,0.0234,0.0195,0.0195,0.0174,0.0168,0.0192,0.0167,0.0167,0.014,0.0136,0.0126,0.0104,0.0102,0.0103,0.0102,0.0101,0.0101,0,0,0,0,0,0,0,0.026,0.0257,0.024,0.0239,0.0236,0.021,0.0206,0.0191,0.0169,0.019,0.0187,0.0182,0.0138,0.0128,0.0125,0.0101,0.0103,0.0102,0.0101,0.01,0.0068,0.0068,0,0,0,0,0,0,0.0271,0.0259,0.0242,0.0239,0.0246,0.0211,0.0206,0.0208,0.0169,0.0163,0.0183,0.0181,0.0131,0.0127,0.0122,0.0125,0.0101,0.01,0.0099,0.0067,0.0068,0.0068,0,0,0,0,0,0,0.0271,0.027,0.0244,0.0248,0.0243,0.0211,0.0213,0.0207,0.0193,0.0163,0.0157,0.0175,0.0131,0.0125,0.0109,0.0123,0.0099,0.0097,0.0067,0.0067,0.0068,0.0126,0,0,0,0,0,0,0.0272,0.0271,0.0276,0.0249,0.0243,0.0229,0.0213,0.0206,0.0191,0.0188,0.0155,0.0149,0.013,0.0112,0.0107,0.012,0.0096,0.0067,0.0067,0.0068,0.0124,0.0128,0.0132,0,0,0,0,0,0.0273,0.0281,0.0277,0.0275,0.0252,0.0229,0.0224,0.0199,0.0192,0.0185,0.0166,0.015,0.0111,0.011,0.0105,0.0117,0.0067,0.0067,0.0068,0.0122,0.0127,0.0132,0,0,0,0,0,0,0.0289,0.0277,0.0272,0.0275,0.0255,0.0223,0.0218,0.0201,0.0181,0.0181,0.0152,0.0145,0.0136,0.0116,0.0116,0.0108,0.0087,0.0086,0.013,0.0135,0.0139,0.0159,0.0094,0,0,0,0,0,0.0298,0.0304,0.0281,0.0284,0.0277,0.0249,0.0238,0.0221,0.0199,0.0189,0.0169,0.0149,0.0134,0.0126,0.0108,0.0104,0.0089,0.0108,0.0112,0.0116,0.0127,0.0116,0.0121,0.007,0.007,0.007,0,0,0.0302,0.0299,0.03,0.0288,0.0273,0.0266,0.0241,0.0227,0.0226,0.0188,0.0183,0.0161,0.0135,0.0131,0.0125,0.0117,0.0121,0.0116,0.012,0.013,0.0118,0.0123,0.0127,0.007,0.007,0.007,0,0,0.0314,0.0314,0.0321,0.0311,0.0295,0.0279,0.0277,0.0249,0.0242,0.0231,0.0209,0.0198,0.0169,0.0161,0.0152,0.0167,0.0141,0.0157,0.0198,0.0188,0.0192,0.0196,0.018,0.0182,0.0162,0.0162,0.0162,0,0.0312,0.0328,0.0317,0.032,0.0317,0.0289,0.029,0.028,0.0251,0.0255,0.0236,0.0214,0.0188,0.0196,0.0199,0.0179,0.0165,0.0184,0.0195,0.0198,0.0201,0.0184,0.0185,0.0165,0.0164,0.0164,0.0164,0,0.0332,0.0341,0.0344,0.0345,0.0339,0.0335,0.0322,0.0321,0.031,0.0299,0.0301,0.0271,0.0264,0.025,0.0228,0.0241,0.022,0.0201,0.0187,0.021,0.019,0.019,0.0169,0.0168,0.0167,0.0166,0,0,0.032,0.0351,0.035,0.0364,0.0354,0.0352,0.0362,0.0363,0.0382,0.0358,0.0382,0.0353,0.0344,0.0334,0.0309,0.0296,0.0297,0.0261,0.0259,0.0254,0.027,0.0245,0.0242,0.0279,0.028,0.028,0.0247,0,0.0329,0.036,0.0369,0.0388,0.0397,0.0393,0.0408,0.0411,0.0411,0.0428,0.0411,0.0418,0.0375,0.038,0.0363,0.0314,0.0301,0.0308,0.0241,0.0239,0.0221,0.0243,0.0253,0.0223,0.0247,0.0247,0.0247,0,0.0335,0.0359,0.039,0.0427,0.0431,0.0442,0.0475,0.0485,0.0504,0.0508,0.0517,0.0504,0.0496,0.0454,0.0396,0.0402,0.0346,0.0302,0.0299,0.0258,0.0215,0.0202,0.0222,0.0247,0.0247,0.0247,0.0247,0,0.0335,0.0369,0.0404,0.0411,0.0446,0.0468,0.0487,0.051,0.0537,0.0566,0.0587,0.0576,0.0578,0.0512,0.0427,0.0412,0.0356,0.0322,0.0249,0.0246,0.0233,0.0228,0.0286,0.0286,0.0286,0.0286,0.0286,0,0.0336,0.0358,0.0412,0.0428,0.0475,0.0491,0.0542,0.0561,0.0603,0.0647,0.0634,0.0662,0.0592,0.0553,0.046,0.0362,0.0383,0.0265,0.0241,0.0251,0.0249,0.0252,0.0249,0.0285,0.0285,0.0285,0.0285,0,0.0321,0.0355,0.0396,0.0453,0.0475,0.0508,0.0575,0.0614,0.0647,0.0708,0.0723,0.073,0.068,0.0596,0.0497,0.041,0.0312,0.027,0.0286,0.0264,0.0198,0.0198,0.0186,0.0185,0.0184,0.0183,0.0182,0,0.0321,0.0343,0.0414,0.0447,0.0475,0.0532,0.0574,0.0628,0.0679,0.0746,0.078,0.0767,0.0754,0.0603,0.0468,0.032,0.0302,0.0225,0.0196,0.0213,0.019,0.0192,0.0193,0.0198,0.0197,0.0197,0.0197,0,0.0319,0.0345,0.0385,0.0454,0.0506,0.057,0.0643,0.0694,0.0768,0.0815,0.0875,0.0868,0.0749,0.0619,0.043,0.0321,0.0249,0.0211,0.0238,0.022,0.0222,0.02,0.0201,0.0194,0.0194,0.0194,0.0194,0.0194,0.0322,0.0347,0.0405,0.047,0.0532,0.0613,0.0672,0.0751,0.0835,0.0912,0.0919,0.0896,0.0769,0.0513,0.0368,0.0218,0.0216,0.0148,0.0151,0.0153,0.0159,0.0159,0.012,0.012,0.012,0.012,0.0119,0,0.0329,0.0364,0.042,0.0505,0.0572,0.0608,0.0722,0.0781,0.088,0.092,0.0953,0.0802,0.0662,0.0513,0.0297,0.0156,0.0147,0.0104,0.0135,0.0139,0.0142,0.0149,0.0106,0.0106,0.0105,0.0105,0,0,0.0336,0.0384,0.0415,0.0527,0.059,0.0688,0.0757,0.0831,0.0885,0.0905,0.0886,0.0854,0.069,0.0525,0.0355,0.0241,0.0214,0.0203,0.0227,0.0288,0.0293,0.0178,0.0194,0,0,0,0,0]}],[{"header":{"parameterUnit":"m.s-1","parameterCategory":2,"la1":30.2991,"la2":30.254,"lo1":-89.0895,"lo2":-89.0444,"dy":0.0017,"dx":0.0017,"nx":28,"ny":28,"refTime":"2024-07-27T03:00:00:Z","depth":"4","parameterNumber":2,"parameterNumberName":"U-component_of_CURRENTS"},"data":[0,0,0,0,0,0,0,0,0,0,0,0,0,0,0,0,0,0,0,0,0,0,0,0,0,0,0,0,0,0,0,0,0,0,0,0,0,0,0,0,0,0,0,0,0,0,0,0,0,0,0,0,0,0,0,0,0,0,0.0575,0.0574,0,0.0525,0.0525,0.0525,0.0531,0.0531,0.0532,0.0532,0.0588,0.0589,0.059,0,0,0,0,0,0,0,0,0,0,0,0,0,0.0621,0.0621,0.0575,0.0574,0.0573,0.0525,0.0525,0.0525,0.0531,0.0531,0.0532,0.0532,0.0587,0.0589,0.059,0,0,0,0,0,0,0,0,0,0,0,0,0,0.0593,0.0621,0.0575,0.0567,0.0566,0.0525,0.0525,0.0524,0.0531,0.0531,0.0532,0.0533,0.0587,0.0588,0.059,0.0587,0,0,0.0595,0.0596,0,0,0,0,0,0,0,0,0.0595,0.0592,0.057,0.0568,0.0566,0.0531,0.0561,0.0549,0.0531,0.0548,0.0532,0.0533,0.0575,0.0578,0.0571,0.0589,0.0592,0.0595,0.0596,0.0597,0.0597,0,0,0,0,0,0,0,0.0597,0.0594,0.0559,0.0568,0.0566,0.0547,0.0545,0.0559,0.0564,0.0547,0.0546,0.0534,0.0576,0.057,0.0573,0.0592,0.0595,0.0596,0.0597,0.0598,0.0703,0.0704,0,0,0,0,0,0,0.0597,0.0596,0.0561,0.0557,0.0578,0.0546,0.0544,0.0545,0.0561,0.0562,0.0533,0.0534,0.0567,0.0571,0.0575,0.0641,0.0597,0.0598,0.0599,0.0701,0.0703,0.0705,0,0,0,0,0,0,0.0599,0.0595,0.0563,0.0572,0.0566,0.0544,0.0546,0.0544,0.0549,0.0549,0.0553,0.0542,0.0567,0.0573,0.0602,0.0641,0.0599,0.06,0.0699,0.0702,0.0704,0.0729,0,0,0,0,0,0,0.06,0.0596,0.0611,0.0572,0.0565,0.0546,0.0545,0.0542,0.0537,0.0539,0.0558,0.0562,0.0568,0.06,0.0604,0.0642,0.0602,0.0696,0.07,0.0703,0.0725,0.0732,0.0737,0,0,0,0,0,0.0602,0.0602,0.0613,0.0609,0.0583,0.0545,0.0541,0.053,0.0537,0.0539,0.0558,0.0563,0.0625,0.0602,0.0606,0.0646,0.0695,0.0699,0.0703,0.0723,0.073,0.0737,0,0,0,0,0,0,0.0621,0.0601,0.0612,0.0606,0.0587,0.0545,0.0543,0.0536,0.0549,0.0562,0.057,0.0577,0.0618,0.063,0.0603,0.069,0.0667,0.0672,0.0681,0.0688,0.0694,0.0696,0.0603,0,0,0,0,0,0.0635,0.0632,0.0611,0.0604,0.0603,0.0581,0.057,0.0561,0.0556,0.0562,0.0589,0.0618,0.0636,0.0659,0.0678,0.0718,0.0717,0.0753,0.0759,0.0764,0.0771,0.0796,0.0804,0.0719,0.0718,0.0718,0,0,0.0636,0.0624,0.0623,0.0608,0.0598,0.0591,0.0577,0.0561,0.0566,0.0568,0.0614,0.0634,0.0648,0.0693,0.0715,0.071,0.0788,0.0769,0.0773,0.0777,0.0801,0.0809,0.0816,0.0721,0.0721,0.072,0,0,0.0627,0.0635,0.0639,0.0627,0.0612,0.0598,0.0598,0.059,0.0607,0.0629,0.0645,0.0686,0.0721,0.0748,0.0758,0.0809,0.0809,0.0831,0.0871,0.0896,0.0902,0.0908,0.091,0.0915,0.0845,0.0845,0.0845,0,0.0642,0.0634,0.063,0.0628,0.0618,0.0607,0.0605,0.0611,0.062,0.0649,0.0652,0.0729,0.0744,0.0792,0.0818,0.0822,0.0829,0.0837,0.0901,0.0907,0.0913,0.0913,0.0919,0.0846,0.0846,0.0846,0.0846,0,0.0625,0.0633,0.0627,0.0632,0.0627,0.061,0.0619,0.0653,0.0674,0.0685,0.0751,0.0777,0.0831,0.0847,0.0844,0.091,0.0899,0.0893,0.0876,0.0922,0.092,0.0926,0.0849,0.0848,0.0848,0.0847,0,0,0.0632,0.0622,0.0627,0.0634,0.0626,0.0617,0.0652,0.0676,0.0703,0.0753,0.0803,0.0852,0.089,0.0906,0.093,0.0956,0.0997,0.0953,0.0953,0.0941,0.1042,0.0947,0.0944,0.1005,0.1007,0.1008,0.1019,0,0.0629,0.0622,0.062,0.0625,0.0626,0.0642,0.0666,0.0696,0.0727,0.0784,0.0839,0.0883,0.0904,0.0937,0.0976,0.0996,0.1017,0.0994,0.101,0.1011,0.091,0.0949,0.1013,0.1024,0.1025,0.1026,0.1026,0,0.0624,0.0618,0.0617,0.0631,0.0637,0.0646,0.0692,0.0712,0.0782,0.082,0.0896,0.0923,0.1007,0.0995,0.107,0.1059,0.1059,0.1058,0.1058,0.0966,0.0927,0.0973,0.1037,0.1036,0.1035,0.1034,0.1034,0,0.0617,0.0626,0.0622,0.0619,0.0629,0.0663,0.0686,0.0738,0.077,0.0855,0.0892,0.0978,0.1037,0.1066,0.1093,0.1088,0.1138,0.1126,0.1033,0.1026,0.1094,0.1088,0.1151,0.1151,0.1151,0.1151,0.1151,0,0.0592,0.0601,0.0627,0.0616,0.0642,0.0665,0.0705,0.0749,0.0813,0.0849,0.0924,0.0965,0.1059,0.1097,0.1105,0.1095,0.1157,0.1043,0.1028,0.1104,0.1098,0.1097,0.1091,0.1152,0.1152,0.1152,0.1152,0,0.0564,0.0574,0.058,0.0609,0.0632,0.0654,0.0717,0.0739,0.0811,0.0868,0.0901,0.0989,0.1039,0.1087,0.1128,0.1103,0.1092,0.106,0.1132,0.1119,0.0957,0.0952,0.0963,0.096,0.0958,0.0956,0.0954,0,0.0536,0.0536,0.0574,0.0581,0.0595,0.0642,0.0669,0.0745,0.0767,0.0863,0.0882,0.0956,0.1006,0.1006,0.1051,0.105,0.1029,0.1011,0.0992,0.0956,0.0941,0.094,0.0939,0.0949,0.0949,0.0948,0.0947,0,0.0487,0.0511,0.051,0.053,0.0561,0.0583,0.0635,0.0661,0.074,0.0814,0.0851,0.0871,0.092,0.0955,0.0961,0.0954,0.1023,0.0984,0.0989,0.097,0.0939,0.0926,0.0928,0.0938,0.094,0.094,0.0941,0,0.0464,0.0454,0.0462,0.0476,0.0499,0.0506,0.0553,0.0592,0.0637,0.0754,0.0761,0.0838,0.0916,0.0901,0.0903,0.0898,0.0878,0.0841,0.0853,0.0863,0.0823,0.0769,0.0707,0,0,0,0,0,0.0436,0.0414,0.041,0.0411,0.0422,0.0444,0.0507,0.0555,0.0656,0.0662,0.0714,0.0747,0.0769,0.08,0.0774,0.0832,0.0868,0.0793,0.0828,0.0887,0.0898,0.0858,0,0,0,0,0,0,0.0416,0.0401,0.0387,0.0345,0.0341,0.0353,0.0398,0.047,0.0483,0.0592,0.0614,0.068,0.0717,0.078,0.0754,0.076,0.0759,0.0838,0.0835,0.0881,0.0891,0.09,0.0862,0,0,0,0,0]},{"header":{"parameterUnit":"m.s-1","parameterCategory":2,"la1":30.2991,"la2":30.254,"lo1":-89.0895,"lo2":-89.0444,"dy":0.0017,"dx":0.0017,"nx":28,"ny":28,"refTime":"2024-07-27T03:00:00:Z","depth":"4","parameterNumber":3,"parameterNumberName":"V-component_of_CURRENTS"},"data":[0,0,0,0,0,0,0,0,0,0,0,0,0,0,0,0,0,0,0,0,0,0,0,0,0,0,0,0,0,0,0,0,0,0,0,0,0,0,0,0,0,0,0,0,0,0,0,0,0,0,0,0,0,0,0,0,0,0,0.0287,0.0288,0,0.0289,0.0288,0.0288,0.0299,0.03,0.03,0.03,0.0257,0.0255,0.0254,0,0,0,0,0,0,0,0,0,0,0,0,0,0.0257,0.0258,0.0287,0.0288,0.0288,0.0289,0.0288,0.0288,0.0299,0.03,0.03,0.0301,0.0257,0.0255,0.0254,0,0,0,0,0,0,0,0,0,0,0,0,0,0.0264,0.0258,0.0287,0.0295,0.0295,0.0289,0.0288,0.0288,0.0299,0.03,0.03,0.0301,0.0258,0.0256,0.0253,0.0226,0,0,0.0246,0.0245,0,0,0,0,0,0,0,0,0.0263,0.0265,0.0293,0.0294,0.0295,0.0296,0.0262,0.0266,0.0299,0.0296,0.03,0.0301,0.0266,0.0263,0.026,0.0224,0.0222,0.0246,0.0245,0.0244,0.0243,0,0,0,0,0,0,0,0.0263,0.0265,0.0286,0.0293,0.0294,0.0285,0.0287,0.0263,0.0275,0.0296,0.0297,0.03,0.0266,0.0263,0.0259,0.0222,0.0246,0.0244,0.0243,0.0242,0.0173,0.0173,0,0,0,0,0,0,0.0268,0.0264,0.0286,0.0286,0.0282,0.0285,0.0287,0.0293,0.0277,0.0275,0.0299,0.03,0.0266,0.0262,0.0258,0.0242,0.0244,0.0241,0.024,0.0174,0.0173,0.0173,0,0,0,0,0,0,0.0267,0.027,0.0286,0.0276,0.0278,0.0285,0.0292,0.0293,0.0299,0.028,0.0278,0.0305,0.0267,0.0261,0.0242,0.024,0.024,0.0238,0.0174,0.0173,0.0173,0.0199,0,0,0,0,0,0,0.0266,0.027,0.0278,0.0277,0.0279,0.0289,0.0292,0.0293,0.03,0.0301,0.0284,0.028,0.0267,0.0246,0.024,0.0236,0.0236,0.0175,0.0174,0.0173,0.0198,0.0199,0.02,0,0,0,0,0,0.0265,0.0272,0.0279,0.0281,0.029,0.029,0.029,0.0295,0.0299,0.0302,0.0289,0.0281,0.0237,0.0244,0.0237,0.0233,0.0175,0.0174,0.0173,0.0198,0.0199,0.02,0,0,0,0,0,0,0.0261,0.0274,0.0281,0.0291,0.0295,0.0293,0.0297,0.0298,0.0291,0.0294,0.0275,0.027,0.0251,0.0236,0.0244,0.0209,0.0204,0.0202,0.0226,0.0226,0.0227,0.0229,0.0235,0,0,0,0,0,0.0265,0.0277,0.0282,0.0292,0.0295,0.0297,0.0299,0.0303,0.0296,0.0295,0.0284,0.0265,0.0239,0.023,0.0208,0.0189,0.0166,0.0181,0.0181,0.0182,0.0178,0.014,0.0137,0.017,0.017,0.017,0,0,0.0265,0.0275,0.0282,0.0293,0.0296,0.0297,0.0299,0.0306,0.0306,0.0288,0.0285,0.0266,0.0234,0.0215,0.0205,0.0204,0.0162,0.0181,0.0182,0.0177,0.0139,0.0135,0.0133,0.0169,0.0169,0.0169,0,0,0.0266,0.0282,0.0289,0.0293,0.0304,0.0304,0.0307,0.031,0.0313,0.0303,0.0289,0.0269,0.024,0.0217,0.0199,0.0186,0.0166,0.0183,0.0188,0.0151,0.0148,0.0146,0.012,0.0114,0.0184,0.0184,0.0184,0,0.0263,0.0278,0.0289,0.0294,0.0299,0.0307,0.0309,0.0308,0.0306,0.0301,0.0306,0.0256,0.0236,0.0199,0.0199,0.0188,0.0168,0.0191,0.0153,0.0149,0.0146,0.012,0.0114,0.0185,0.0185,0.0185,0.0185,0,0.0268,0.0279,0.0283,0.0295,0.0299,0.0305,0.0307,0.0312,0.0315,0.0309,0.0285,0.0259,0.023,0.022,0.0206,0.0172,0.0167,0.0159,0.0154,0.0144,0.0118,0.0111,0.0187,0.0187,0.0186,0.0186,0,0,0.0253,0.0281,0.0282,0.0292,0.0303,0.0307,0.0307,0.0304,0.0301,0.0295,0.0282,0.0244,0.0237,0.0216,0.0198,0.0168,0.0133,0.0159,0.0156,0.0139,0.0059,0.0078,0.0072,0.0121,0.0119,0.0118,0.0053,0,0.0251,0.0267,0.0278,0.0289,0.0296,0.0306,0.0304,0.0303,0.0298,0.0289,0.0262,0.0241,0.0233,0.0223,0.0192,0.0151,0.0114,0.0152,0.0065,0.0063,0.0085,0.0064,0.0114,0.0047,0.0046,0.0044,0.0044,0,0.0246,0.026,0.0275,0.0294,0.0297,0.0303,0.0308,0.031,0.0294,0.029,0.0269,0.0248,0.0213,0.0205,0.0127,0.0154,0.0106,0.007,0.0066,0.0068,0.0068,0.0055,0.0031,0.0032,0.0032,0.0033,0.0034,0,0.0235,0.0255,0.0272,0.0279,0.0298,0.0306,0.0316,0.0309,0.0316,0.0296,0.0293,0.0245,0.0232,0.0165,0.0109,0.0113,0.002,0.0013,-0.0023,-0.0022,-0.0029,-0.0025,-0.0064,-0.0064,-0.0064,-0.0064,-0.0063,0,0.0227,0.0239,0.0273,0.0282,0.0302,0.0312,0.0327,0.0328,0.0328,0.0334,0.0301,0.0289,0.0221,0.0168,0.0103,0.0031,0.0014,-0.0029,-0.0042,-0.0015,-0.001,-0.0033,-0.0029,-0.0066,-0.0066,-0.0065,-0.0065,0,0.0214,0.0236,0.0259,0.0288,0.0301,0.0318,0.0357,0.0364,0.0363,0.0371,0.0368,0.0324,0.0262,0.0186,0.0079,0.0035,-0.0047,-0.0078,-0.0036,-0.0044,-0.0065,-0.0059,-0.0127,-0.0127,-0.0127,-0.0127,-0.0127,0,0.0212,0.0224,0.027,0.0294,0.0313,0.0347,0.037,0.0385,0.04,0.0391,0.0394,0.0338,0.0301,0.0172,0.0087,-0.0036,-0.0056,-0.01,-0.0094,-0.0068,-0.0074,-0.0068,-0.0061,-0.0127,-0.0127,-0.0127,-0.0127,0,0.0208,0.0228,0.0252,0.0302,0.0338,0.0377,0.0413,0.0426,0.0442,0.044,0.0415,0.0348,0.0278,0.018,0.009,-0.0004,-0.0069,-0.0101,-0.0102,-0.0096,-0.0069,-0.0073,-0.0067,-0.0127,-0.0127,-0.0127,-0.0127,0,0.0212,0.0229,0.0266,0.031,0.0356,0.0395,0.0416,0.0437,0.0452,0.0447,0.0436,0.0358,0.0316,0.0195,0.0107,0.0029,0.0003,-0.0029,-0.0034,-0.0035,0.0016,0.0066,0.0032,0,0,0,0,0,0.0215,0.0236,0.0274,0.0322,0.0366,0.0393,0.0438,0.0455,0.047,0.046,0.0452,0.0387,0.0267,0.0209,0.0133,0.0097,-0.0017,0.0004,-0.0058,-0.0126,-0.0127,-0.008,0,0,0,0,0,0,0.0217,0.025,0.0269,0.0324,0.0357,0.0404,0.0434,0.0447,0.0444,0.0448,0.0386,0.0362,0.0245,0.0311,0.0129,0.0105,0.0054,-0.005,-0.0052,-0.0126,-0.0127,-0.0127,-0.0079,0,0,0,0,0]}]]